CAPE
0 0 0 0 0 1 46 19 49 22 74 255 348 431 451 658 823 905 1977 1892 1667 1114 1151 1303 1574 1438 1255 806 552 262 114 41 65 300 861 1147 1246 1213 1065 879 735 664 863 1002 992 1019 867 851 992
0 0 0 0 0 41 1 33 97 25 32 137 412 680 743 836 1075 1531 1595 2095 1819 1274 1382 1288 1464 1209 818 756 644 524 317 199 143 71 72 185 406 572 582 649 710 715 825 940 949 904 741 700 909
0 0 0 0 0 41 6 105 35 10 63 159 105 563 1244 1006 1090 955 873 1771 1902 1708 1351 1607 1493 1087 783 641 575 619 529 330 212 168 117 22 12 33 134 419 607 667 766 836 768 674 607 662 797
0 0 0 0 35 32 10 1 142 52 73 129 17 284 1020 1265 882 981 1627 896 1560 1538 915 1387 1335 1221 1085 849 731 690 726 724 651 500 412 354 284 229 116 115 226 331 416 588 806 709 608 578 613
0 0 34 36 8 12 34 102 57 117 127 0 0 172 1032 881 1433 1197 457 935 1505 1518 768 910 1329 1463 1400 1237 1140 1122 1115 1091 1072 1056 1012 934 726 639 629 528 381 278 311 487 725 955 900 858 550
0 0 48 63 71 26 5 86 248 71 15 0 0 165 1432 1280 1867 1648 1314 1110 1276 1372 919 941 1088 1265 1383 1362 1161 1031 971 895 812 751 704 621 569 596 633 645 617 597 553 476 386 354 538 1263 1315
0 9 7 2 20 13 0 1 151 12 70 0 0 164 1316 1582 1725 1278 1004 1074 1429 1513 1579 1638 1055 486 196 152 132 107 77 23 9 0 0 0 33 464 181 478 455 740 751 766 711 569 402 272 254
0 0 5 11 99 54 0 0 48 0 0 0 0 128 639 1340 1421 960 515 579 989 1057 910 362 148 9 0 0 0 0 0 0 0 0 0 0 0 0 135 0 386 53 175 489 648 507 590 635 515
0 0 1 6 1 29 2 5 132 55 0 0 0 83 844 954 557 263 116 170 334 236 51 0 0 0 0 0 0 0 0 0 0 0 0 0 0 0 0 0 0 0 0 0 0 34 332 800 958
0 1 7 0 0 9 0 45 73 0 0 0 0 314 478 411 362 110 18 12 15 0 0 0 0 0 0 0 0 0 0 0 0 0 0 0 0 0 0 0 0 0 0 0 0 9 320 1088 1125
0 0 0 0 0 0 15 58 0 3 0 0 0 105 271 242 253 6 0 0 0 0 0 0 0 0 0 0 0 0 0 0 0 0 0 0 0 0 0 0 0 0 0 0 0 0 106 1253 1292
0 0 0 0 0 0 0 5 0 0 0 0 0 32 202 149 54 5 0 0 0 0 0 0 0 0 0 0 0 0 0 0 0 0 0 0 0 0 0 0 0 0 0 0 0 0 0 0 0
0 0 0 0 0 0 0 0 0 0 0 0 11 82 164 106 82 40 27 8 0 0 0 0 0 0 0 0 0 0 0 0 0 0 0 0 0 0 0 0 0 0 0 0 0 0 0 0 0
0 0 0 0 0 0 0 0 0 0 0 0 0 0 78 159 126 80 90 24 14 30 17 1 1 5 0 0 0 0 0 0 0 0 0 1 0 1 0 0 0 0 0 0 0 0 0 0 0
0 0 0 0 0 0 0 0 0 0 0 0 0 0 17 144 155 119 146 42 47 81 58 5 0 0 0 0 0 0 0 0 0 0 0 0 0 1 3 0 0 0 0 0 0 4 8 5 4
0 0 0 0 0 0 0 0 0 0 0 0 0 0 55 141 104 145 26 48 63 80 64 0 0 0 0 0 0 0 0 0 0 0 0 0 0 1 0 0 0 2 0 0 0 0 5 12 18
0 0 0 0 0 0 0 0 0 0 0 0 0 0 28 140 165 73 44 94 138 125 60 0 0 0 0 0 0 0 0 0 0 0 0 0 0 0 1 2 0 15 4 1 0 0 1 3 17
0 0 0 1 0 0 0 0 0 0 0 0 0 0 0 93 104 111 79 132 118 124 17 0 0 0 0 0 0 0 0 0 0 0 0 0 0 0 3 1 4 3 3 5 17 9 1 2 4
0 0 0 0 0 0 0 0 0 0 0 0 0 0 0 124 105 171 159 128 141 7 0 0 0 0 0 0 0 0 0 0 0 0 0 0 0 0 4 4 1 5 8 26 28 21 25 4 0
0 0 0 0 0 0 0 0 0 0 0 0 0 0 27 107 196 251 259 153 12 0 0 0 0 0 0 0 0 0 0 0 0 0 0 0 0 3 0 2 4 6 12 28 40 60 29 26 19
0 0 6 0 0 0 0 0 0 0 0 0 0 63 127 177 206 279 214 27 0 0 0 0 0 0 0 0 0 0 0 0 0 0 0 0 0 0 1 2 2 25 22 17 26 41 41 37 25
0 0 0 0 0 0 0 0 9 14 40 0 7 94 149 159 194 305 136 0 0 0 0 0 0 0 0 0 0 0 0 0 0 0 0 0 5 3 8 36 8 1 23 32 27 27 25 27 11
0 0 0 0 0 0 0 2 0 34 10 1 50 106 107 156 255 137 7 0 0 0 0 0 0 0 0 0 0 0 0 0 0 1 11 15 13 53 3 8 4 32 24 24 14 5 17 29 17
0 0 0 0 0 2 1 15 40 73 3 1 29 35 77 59 16 3 0 0 0 0 0 2 0 0 0 0 0 2 2 3 6 8 18 18 11 18 24 27 9 2 6 8 8 9 15 55 29
0 0 3 33 26 52 0 0 4 5 0 0 25 37 58 41 31 15 0 1 8 4 19 2 3 1 3 4 8 8 10 13 17 13 12 18 22 9 14 14 5 7 7 8 15 18 37 41 52
10 2 4 10 30 23 1 0 25 0 0 0 0 32 61 36 37 50 16 11 10 29 17 20 11 10 11 10 9 11 12 13 7 20 15 10 14 2 12 20 7 21 21 30 18 35 21 54 39
7 4 9 0 0 8 30 11 0 0 0 0 0 0 22 33 37 40 39 46 51 29 27 13 10 13 16 9 17 14 17 5 19 13 12 12 10 0 0 19 29 14 22 16 15 0 15 35 11
0 1 0 32 39 41 35 1 21 1 1 5 4 12 13 30 47 57 59 55 58 10 8 37 25 24 1 4 16 15 7 4 25 20 10 9 9 3 2 14 17 1 15 3 0 0 12 6 6
22 23 5 2 0 2 2 22 0 0 0 0 0 1 1 9 16 43 33 18 11 14 14 29 42 3 0 0 11 12 9 16 19 10 0 30 3 10 3 14 7 0 0 0 0 2 6 6 4
0 0 1 1 0 32 31 0 0 0 0 0 0 0 19 19 32 40 45 47 48 25 14 23 22 7 0 0 1 13 12 19 14 0 16 17 14 12 11 4 3 1 0 0 0 2 9 5 0
CIN
-0 -0 -0 -0 -0 -4 -19 -23 -9 -11 -24 -56 -62 -13 -17 -33 -19 -6 -2 -1 -1 -15 -59 -66 -60 -57 -67 -118 -151 -206 -256 -295 -284 -186 -77 -39 -21 -19 -26 -44 -61 -64 -38 -21 -16 -14 -24 -26 -23
-0 -0 -0 -0 -0 -39 -17 -29 -4 -6 -55 -65 -28 -3 -5 -8 -13 -0 -0 -0 -1 -3 -15 -47 -70 -84 -127 -122 -144 -153 -196 -215 -221 -247 -249 -211 -145 -100 -96 -83 -70 -70 -55 -33 -28 -26 -42 -38 -17
-0 -0 -0 -0 -0 -13 -33 -18 -163 -28 -49 -37 -34 -4 -3 -2 -1 -10 -27 -2 -1 -1 -27 -68 -80 -104 -131 -141 -151 -146 -149 -178 -194 -202 -212 -255 -289 -268 -205 -139 -105 -87 -71 -51 -52 -52 -46 -37 -29
-0 -0 -0 -0 -3 -12 -69 -38 -1 -17 -32 -19 -69 -37 -36 -19 -11 -11 -7 -14 -1 -2 -53 -87 -79 -87 -99 -129 -140 -137 -129 -125 -140 -158 -163 -171 -177 -179 -215 -212 -168 -142 -119 -89 -56 -66 -69 -57 -44
-0 -0 -6 -6 -21 -47 -11 -6 -19 -6 -7 -1 -0 -27 -23 -35 -4 -11 -81 -8 -2 -1 -67 -101 -89 -73 -69 -77 -97 -96 -87 -86 -82 -86 -83 -90 -118 -123 -116 -126 -141 -154 -141 -109 -71 -34 -36 -31 -60
-0 -0 -8 -14 -8 -15 -18 -25 -3 -5 -5 -0 -0 -31 -3 -8 -1 -3 -2 -2 -3 -4 -26 -83 -119 -96 -80 -64 -86 -97 -89 -90 -100 -102 -102 -112 -118 -116 -111 -104 -108 -109 -112 -122 -125 -121 -81 -9 -1
-0 -12 -12 -30 -18 -24 -0 -37 -6 -69 -6 -0 -0 -3 -2 -0 -1 -3 -1 -3 -2 -2 -2 -7 -53 -148 -249 -314 -29 -31 -37 -49 -56 -0 -0 -0 -98 -101 -131 -97 -101 -83 -76 -82 -89 -100 -112 -114 -104
-0 -0 -9 -17 -9 -67 -1 -0 -26 -0 -0 -0 -0 -13 -4 -0 -1 -3 -5 -14 -0 -9 -21 -68 -79 -168 -0 -0 -0 -0 -0 -0 -0 -0 -0 -0 -0 -0 -96 -0 -78 -147 -120 -97 -82 -102 -95 -98 -86
-0 -0 -25 -8 -3 -5 -16 -5 -4 -16 -0 -0 -0 -23 -6 -24 -21 -36 -77 -63 -33 -52 -134 -0 -0 -0 -0 -0 -0 -0 -0 -0 -0 -0 -0 -0 -0 -0 -0 -0 -0 -0 -0 -0 -0 -154 -113 -83 -55
-0 -3 -8 -4 -0 -19 -2 -4 -3 -0 -0 -0 -12 -21 -30 -31 -18 -56 -120 -146 -180 -0 -0 -0 -0 -0 -0 -0 -0 -0 -0 -0 -0 -0 -0 -0 -0 -0 -0 -0 -0 -0 -0 -0 -0 -66 -78 -63 -32
-0 -0 -1 -0 -0 -0 -4 -6 -0 -4 -0 -0 -0 -107 -67 -50 -13 -80 -0 -0 -0 -0 -0 -0 -0 -0 -0 -0 -0 -0 -0 -0 -0 -0 -0 -0 -0 -0 -0 -0 -0 -0 -0 -0 -0 -0 -17 -6 -1
-0 -0 -0 -0 -0 -0 -0 -3 -0 -0 -0 -0 -0 -121 -55 -48 -79 -123 -0 -0 -0 -0 -0 -0 -0 -0 -0 -0 -0 -0 -0 -0 -0 -0 -0 -0 -0 -0 -0 -0 -0 -0 -0 -0 -0 -0 -0 -0 -0
-0 -0 -0 -0 -0 -0 -0 -0 -0 -0 -0 -0 -91 -61 -49 -55 -69 -107 -144 -200 -0 -0 -0 -0 -0 -0 -0 -0 -0 -0 -0 -0 -0 -0 -0 -0 -0 -0 -0 -0 -0 -0 -0 -0 -0 -0 -0 -0 -0
-0 -0 -0 -0 -0 -0 -0 -0 -0 -0 -0 -0 -0 -27 -37 -47 -78 -145 -165 -243 -233 -350 -278 -274 -312 -143 -0 -0 -0 -0 -0 -0 -0 -0 -0 -0 -0 -0 -0 -0 -0 -0 -0 -0 -0 -0 -0 -0 -0
-0 -0 -0 -0 -0 -0 -0 -0 -0 -0 -0 -0 -0 -0 -36 -57 -90 -127 -148 -255 -313 -332 -366 -431 -24 -0 -0 -0 -0 -0 -0 -0 -0 -0 -0 -0 -0 -0 -1 -0 -0 -0 -0 -0 -0 -1 -1 -0 -0
-0 -0 -0 -0 -0 -0 -0 -0 -0 -0 -0 -0 -0 -0 -66 -48 -89 -131 -232 -263 -282 -275 -278 -0 -0 -0 -0 -0 -0 -0 -0 -0 -0 -0 -0 -0 -0 -0 -0 -0 -0 -1 -0 -0 -0 -0 -1 -1 -1
-0 -0 -0 -0 -0 -0 -0 -0 -0 -0 -0 -0 -0 -0 -73 -77 -110 -200 -220 -217 -205 -212 -257 -0 -0 -0 -0 -0 -0 -0 -0 -0 -0 -0 -0 -0 -0 -0 -0 -1 -0 -1 -1 -1 -0 -0 -0 -1 -1
-0 -0 -0 -1 -0 -0 -0 -0 -0 -0 -0 -0 -0 -0 -0 -103 -150 -191 -174 -177 -170 -170 -278 -0 -0 -0 -0 -0 -0 -0 -0 -0 -0 -0 -0 -0 -0 -0 -1 -1 -1 -1 -1 -0 -2 -1 -1 -1 -1
-0 -0 -0 -0 -0 -0 -0 -0 -0 -0 -0 -0 -0 -0 -0 -93 -119 -141 -131 -135 -109 -131 -0 -0 -0 -0 -0 -0 -0 -0 -0 -0 -0 -0 -0 -0 -0 -0 -2 -2 -1 -1 -1 -1 -0 -1 -2 -2 -0
-0 -0 -0 -3 -0 -0 -0 -0 -0 -0 -0 -0 -0 -0 -46 -82 -93 -86 -79 -81 -99 -0 -0 -0 -0 -0 -0 -0 -0 -0 -0 -0 -0 -0 -0 -0 -0 -1 -0 -1 -1 -0 -1 -0 -0 -0 -1 -1 -1
-0 -0 -4 -0 -0 -0 -0 -0 -0 -0 -0 -0 -3 -96 -84 -70 -75 -41 -38 -85 -0 -0 -0 -0 -0 -0 -0 -0 -0 -0 -0 -0 -0 -0 -0 -0 -0 -0 -0 -0 -0 -0 -0 -1 -10 -2 -7 -2 -2
-0 -0 -0 -0 -0 -0 -0 -0 -2 -29 -125 -24 -101 -98 -78 -74 -29 -2 -19 -0 -0 -0 -0 -0 -0 -0 -0 -0 -0 -0 -0 -0 -0 -0 -0 -0 -1 -3 -1 -0 -3 -0 -0 -2 -3 -2 -3 -7 -6
-0 -0 -0 -0 -0 -0 -0 -2 -0 -33 -59 -27 -110 -83 -43 -17 -2 -14 -2 -0 -0 -0 -0 -0 -0 -0 -0 -0 -0 -0 -0 -0 -0 -2 -1 -3 -2 -1 -9 -5 -3 -0 -0 -2 -2 -11 -2 -1 -2
-0 -0 -0 -0 -0 -3 -1 -6 -10 -4 -10 -0 -62 -51 -23 -21 -2 -1 -0 -0 -0 -0 -0 -3 -0 -0 -0 -0 -0 -2 -2 -2 -2 -2 -2 -3 -2 -2 -5 -1 -11 -15 -7 -3 -2 -4 -6 -0 -1
-0 -0 -3 -9 -40 -41 -0 -0 -7 -7 -0 -0 -3 -2 -4 -3 -1 -3 -0 -1 -3 -2 -3 -2 -3 -2 -1 -2 -2 -1 -1 -1 -1 -2 -2 -3 -2 -3 -5 -8 -3 -2 -0 -7 -2 -3 -2 -2 -0
-9 -0 -6 -8 -7 -18 -34 -0 -22 -0 -0 -0 -0 -2 -2 -5 -4 -2 -3 -3 -4 -3 -3 -2 -2 -3 -3 -2 -1 -1 -1 -2 -3 -1 -2 -2 -2 -9 -3 -1 -5 -0 -0 -1 -1 -0 -7 -0 -0
-14 -7 -11 -0 -0 -6 -6 -30 -0 -0 -0 -0 -0 -0 -6 -4 -2 -2 -4 -2 -1 -13 -7 -5 -3 -2 -3 -3 -1 -1 -1 -6 -3 -3 -3 -12 -11 -0 -0 -2 -0 -1 -0 -0 -0 -2 -11 -0 -1
-0 -3 -0 -6 -5 -2 -6 -1 -29 -3 -3 -2 -4 -3 -4 -2 -7 -3 -4 -5 -2 -12 -11 -1 -3 -2 -0 -0 -2 -2 -2 -6 -1 -1 -4 -8 -0 -0 -0 -1 -1 -0 -0 -1 -0 -5 -0 -0 -0
-3 -3 -11 -2 -0 -4 -4 -10 -0 -0 -0 -0 -0 -1 -1 -3 -4 -5 -4 -13 -13 -6 -30 -21 -6 -8 -0 -2 -3 -1 -1 -1 -1 -1 -0 -0 -0 -0 -0 -0 -0 -0 -0 -0 -0 -1 -0 -0 -0
-0 -0 -1 -3 -0 -3 -6 -0 -0 -0 -0 -0 -0 -0 -3 -3 -4 -3 -2 -3 -4 -8 -8 -3 -9 -8 -0 -0 -0 -1 -4 -4 -2 -0 -3 -0 -0 -0 -0 -0 -0 -0 -0 -0 -0 -0 -0 -0 -0
Wind_Speed
21 16 17 15 8 9 9 10 14 14 17 16 17 16 19 17 16 12 13 12 13 15 14 14 14 14 14 14 14 14 15 16 17 18 18 17 17 17 16 16 15 15 14 15 14 13 13 14 16
22 17 8 8 3 3 11 9 11 15 16 16 16 17 18 19 18 16 15 12 13 14 13 12 12 13 14 15 16 16 17 16 16 17 17 17 17 17 17 17 17 17 17 17 17 18 18 18 19
20 9 18 9 13 10 12 8 12 15 15 16 15 17 18 16 15 13 14 13 13 13 14 13 12 12 14 15 16 17 17 18 17 17 17 17 18 18 18 18 18 18 19 19 19 20 20 20 21
13 7 6 11 9 8 12 10 12 13 13 16 15 17 16 16 12 13 14 12 13 14 14 13 12 12 13 15 16 16 17 17 18 18 18 19 19 19 19 19 19 20 20 20 21 20 21 22 23
8 10 8 2 14 11 12 12 13 11 11 14 16 16 15 15 14 15 15 14 13 14 13 13 13 14 14 16 17 17 18 19 19 20 20 21 21 21 21 21 22 23 23 24 24 24 24 23 22
16 20 18 3 4 11 13 14 10 20 8 14 15 15 14 13 14 15 15 14 13 13 13 13 14 15 16 17 18 19 19 20 20 21 22 23 23 22 22 22 23 24 25 26 26 26 28 27 26
20 20 20 23 8 3 12 19 9 6 14 14 15 16 13 13 13 14 14 15 14 14 13 14 15 16 17 19 20 20 21 21 22 23 25 25 24 23 24 24 26 27 28 28 28 28 27 28 27
23 22 22 5 1 2 3 7 10 19 14 15 17 14 10 13 13 12 14 14 14 13 14 14 14 15 16 19 20 22 22 23 24 25 28 28 25 23 23 26 26 29 31 31 31 31 30 29 29
21 19 16 6 13 16 5 4 14 12 11 14 17 15 13 14 12 12 13 13 14 14 15 16 16 17 18 19 19 20 21 23 25 27 30 29 30 29 31 30 30 31 30 30 31 31 30 29 29
17 15 17 19 13 16 6 2 6 11 13 12 13 12 12 12 10 11 12 12 14 15 16 17 18 18 18 20 21 22 25 26 27 29 31 31 32 30 34 34 34 31 32 31 29 28 27 27 29
15 17 23 16 19 23 7 4 8 7 10 9 8 9 11 11 10 11 12 13 14 15 16 17 18 20 22 22 24 25 26 28 30 31 32 33 33 34 35 36 37 38 37 36 37 35 28 26 27
13 5 19 12 9 20 6 6 7 13 14 12 12 8 8 8 9 10 11 12 14 15 16 18 19 20 23 24 25 27 29 30 32 32 33 35 35 36 37 38 40 39 39 38 37 37 38 38 38
8 8 10 10 8 7 11 8 6 9 15 12 11 8 6 7 8 10 11 12 13 14 16 18 20 22 24 25 27 28 29 31 32 33 33 35 36 37 38 39 39 39 38 38 38 39 39 40 40
11 8 8 6 6 7 7 7 8 12 15 11 7 5 6 7 7 9 9 10 12 14 16 18 20 22 24 26 27 28 28 32 32 33 34 34 37 38 39 39 38 37 37 38 38 37 38 38 39
8 6 7 8 8 10 16 7 10 17 17 12 5 5 6 6 7 8 8 9 11 13 15 17 19 22 25 27 28 29 30 33 33 34 35 34 38 38 39 39 39 38 39 39 38 39 38 38 37
6 4 4 1 7 9 11 8 3 13 12 9 3 5 6 6 8 9 8 9 11 13 15 18 20 23 26 27 28 30 31 33 35 36 36 35 39 38 39 41 40 39 41 40 40 39 38 39 40
6 10 5 5 9 7 3 8 8 12 11 11 6 6 6 6 10 8 8 9 11 13 16 19 21 25 27 27 29 31 33 34 36 37 38 38 39 39 39 40 41 40 41 39 38 40 41 42 40
15 6 12 13 11 8 5 10 11 15 15 12 10 6 7 6 8 7 7 10 11 14 17 19 22 25 27 29 31 33 34 36 38 39 39 41 39 41 40 42 41 42 42 42 41 43 41 42 43
24 23 18 10 13 18 15 20 18 19 18 17 13 10 7 8 6 6 8 11 12 15 18 20 22 26 29 31 35 36 39 39 41 41 40 39 40 42 41 43 45 44 45 44 44 44 44 43 42
18 18 17 13 16 18 20 18 15 17 17 17 13 10 5 4 5 7 10 12 14 16 19 20 24 28 31 33 35 36 39 41 42 40 40 41 44 41 44 46 45 47 47 46 44 42 45 45 42
13 17 17 18 13 19 22 22 17 14 14 13 11 9 5 5 7 7 10 12 15 18 20 22 26 29 32 34 36 38 40 41 42 43 45 42 44 45 45 45 45 43 44 47 47 46 45 45 42
19 11 20 22 21 25 13 30 18 10 12 12 10 8 7 7 6 9 10 13 16 19 21 24 28 30 32 36 38 40 42 45 45 46 44 45 44 45 42 40 44 47 45 43 44 42 42 42 46
21 19 22 24 25 30 23 22 30 7 13 13 11 10 8 6 9 10 11 15 18 20 23 24 28 30 33 36 39 41 44 46 46 46 45 46 44 38 43 45 44 40 41 42 42 42 41 39 39
23 21 19 16 12 10 14 13 12 11 12 12 12 10 9 10 10 12 14 17 19 20 23 27 30 32 36 38 41 43 45 47 47 46 45 44 45 43 39 40 40 40 39 40 39 37 37 35 37
12 15 8 8 5 14 18 17 22 18 16 22 11 11 10 11 12 14 15 17 19 24 25 29 31 35 37 40 43 45 45 45 42 45 46 44 43 39 42 41 40 36 36 36 35 35 33 31 33
17 22 23 34 30 32 20 24 17 17 18 21 20 15 10 11 16 16 20 23 25 28 28 30 33 35 38 42 45 45 43 43 44 44 42 41 40 41 41 38 37 36 35 34 33 31 31 27 30
16 16 21 26 28 20 20 14 14 16 18 18 19 22 19 19 19 21 23 25 27 28 29 30 33 35 39 44 44 44 43 44 42 40 39 37 38 37 37 34 33 34 31 30 30 30 31 30 30
15 25 27 20 30 31 27 29 19 18 20 19 21 20 20 23 22 22 23 26 29 27 28 32 32 34 40 44 45 46 45 42 40 38 36 34 36 35 34 33 33 30 27 29 28 27 28 30 29
14 17 17 21 24 32 33 21 19 20 24 26 26 26 27 26 28 28 29 29 30 34 37 34 33 37 42 44 48 46 45 39 35 35 31 32 33 32 30 29 30 26 27 27 26 24 27 28 28
21 24 27 30 28 24 28 28 20 21 24 26 28 27 25 28 28 31 32 34 34 38 37 37 37 40 42 46 47 45 40 35 35 33 30 32 31 28 28 29 25 22 22 22 20 27 3 11 27
Wind_Direction
268 168 159 160 38 29 27 343 30 32 23 21 14 1 13 352 342 6 36 20 14 28 32 24 18 17 9 6 360 355 358 1 8 13 17 14 11 11 9 7 5 1 355 347 346 346 345 336 327
244 292 131 140 59 132 350 4 23 25 34 34 20 25 21 22 29 51 34 15 26 33 23 10 10 9 15 13 9 8 6 3 360 4 3 4 360 350 343 340 339 340 338 334 331 326 322 319 318
272 332 296 146 188 351 321 24 288 45 39 24 23 355 357 17 0 19 18 23 26 20 26 17 10 10 12 11 14 17 16 18 13 8 1 359 358 354 348 344 341 338 335 330 327 323 319 316 313
324 65 59 330 331 342 281 356 19 37 31 1 13 18 15 339 11 17 4 2 27 39 27 27 16 1 358 2 11 2 359 356 356 355 351 352 351 347 351 349 343 338 335 332 327 325 321 315 311
338 305 170 116 303 299 304 308 345 22 32 24 356 17 20 19 27 21 35 49 39 29 37 22 8 0 351 358 0 353 354 350 348 348 344 339 340 340 340 338 334 330 327 323 320 317 315 314 314
170 188 204 158 324 326 318 313 345 311 346 29 35 14 11 28 26 36 45 38 34 31 25 27 16 9 6 2 0 360 360 357 353 349 345 339 338 340 340 336 331 327 324 320 318 315 311 309 307
182 188 206 272 337 11 333 292 17 130 350 356 17 2 33 32 22 29 23 11 15 23 37 41 31 28 19 11 9 6 3 1 359 351 344 338 337 339 337 334 329 323 320 318 315 313 311 308 305
209 218 209 321 113 272 66 315 330 287 331 20 353 355 50 49 34 24 12 12 17 23 14 17 22 18 26 15 16 14 9 5 2 357 346 341 341 342 338 334 333 327 320 316 313 311 309 307 303
184 198 189 120 171 324 356 27 305 344 18 358 355 10 50 63 40 12 16 23 25 23 21 22 26 18 8 15 15 17 11 4 357 353 347 346 343 340 335 333 332 329 326 323 318 313 310 306 303
168 169 199 302 320 297 338 56 24 328 341 355 5 26 52 60 43 39 36 27 29 25 23 17 6 18 13 8 2 360 356 352 351 347 342 340 338 337 332 330 329 329 326 323 320 317 314 310 305
161 189 252 327 296 270 28 71 344 6 1 13 38 54 60 60 46 22 22 27 23 24 27 25 14 360 355 1 354 353 353 347 344 345 344 341 337 335 332 329 327 324 322 320 319 318 316 309 306
160 5 306 359 19 195 63 340 352 319 336 341 11 44 42 53 26 15 15 25 28 23 19 15 7 4 357 352 350 346 345 344 342 341 342 338 336 334 332 330 326 323 321 319 318 316 313 309 304
139 9 352 13 35 5 319 339 352 343 319 325 341 8 34 27 360 1 7 14 24 21 16 10 4 358 352 349 345 343 343 341 339 338 338 337 336 334 333 332 330 327 325 323 320 316 313 309 305
350 3 12 26 17 342 340 335 336 325 321 327 342 359 6 3 355 351 3 19 18 13 2 359 357 355 352 348 346 344 345 340 339 337 336 334 336 332 331 330 330 329 328 326 322 320 317 313 309
355 2 352 341 343 328 303 316 308 317 314 314 324 330 339 343 337 338 354 8 10 359 355 355 355 351 347 345 343 342 343 341 340 338 336 335 333 330 329 328 326 326 328 325 324 321 319 315 312
343 339 323 319 335 333 318 302 331 329 328 330 327 320 321 325 330 342 352 358 356 355 355 353 349 348 345 345 343 342 341 338 337 337 336 335 333 329 327 325 324 323 324 322 322 321 320 316 312
341 314 313 339 334 322 337 325 341 329 331 324 318 309 311 319 326 337 346 348 349 351 349 347 347 346 346 346 344 342 340 339 337 334 332 332 330 329 327 325 324 324 322 321 321 320 318 314 313
327 316 311 307 333 323 308 298 334 326 319 317 309 294 299 308 319 331 338 344 346 349 348 347 348 348 346 344 342 339 338 336 335 332 331 329 329 327 325 324 322 322 319 317 317 316 316 313 310
307 305 310 311 331 317 310 302 311 318 315 312 309 296 286 301 318 334 334 337 343 345 346 346 347 346 344 341 339 337 334 333 331 330 329 328 327 325 324 321 319 318 315 314 312 311 309 310 311
307 307 305 321 318 313 309 307 310 317 318 319 315 306 289 294 320 320 326 331 338 343 344 345 343 342 341 340 338 336 333 331 330 330 330 329 325 324 322 320 318 315 312 310 309 307 306 303 306
314 306 313 309 328 314 307 305 296 313 325 326 322 317 308 297 309 318 326 332 339 341 342 341 339 339 338 338 336 334 333 331 330 330 327 326 326 323 321 320 317 316 313 308 307 306 304 301 303
317 313 309 311 311 312 328 304 324 303 321 329 328 323 316 313 311 323 327 332 338 337 339 338 338 337 337 337 335 333 331 329 328 326 325 325 325 322 321 323 321 316 313 310 307 305 304 301 299
314 323 314 310 309 304 308 308 316 323 318 324 326 324 321 327 328 328 330 336 335 335 335 338 338 336 336 336 335 332 330 328 327 326 324 324 323 327 324 321 321 321 316 311 308 305 302 302 299
314 321 318 316 312 295 307 299 327 319 327 334 328 327 324 331 332 333 334 334 331 334 335 336 335 336 336 335 334 332 330 329 327 326 326 326 325 324 325 324 324 322 321 316 313 309 305 303 301
336 328 318 299 234 322 332 328 321 328 336 332 335 328 324 333 331 330 329 329 334 331 331 333 334 334 336 335 334 333 331 330 329 330 327 326 326 326 325 324 325 326 324 321 318 315 312 308 305
334 328 319 292 299 287 332 322 323 338 338 339 339 337 330 332 330 328 329 329 329 329 333 332 333 334 334 334 333 334 333 332 331 330 329 329 328 326 324 327 328 327 326 325 322 322 316 316 311
342 337 332 315 313 314 321 342 347 343 344 347 344 337 335 331 329 329 329 328 329 329 328 331 331 332 334 334 334 334 334 333 331 333 333 332 330 329 329 330 333 333 335 335 331 326 318 315 312
328 321 316 322 308 308 312 318 335 347 348 350 345 345 343 339 334 332 330 331 333 336 332 331 330 332 335 335 334 333 334 333 333 336 337 338 334 332 332 333 337 340 346 342 338 336 323 313 310
337 332 331 326 319 307 308 324 339 339 337 334 337 338 336 335 333 334 336 335 332 330 328 326 329 331 331 333 333 332 331 333 336 338 341 340 339 340 343 342 345 353 351 347 347 345 332 315 309
322 316 312 307 310 315 316 311 337 338 340 339 335 338 340 336 336 334 332 330 330 333 336 332 331 331 333 332 332 331 333 338 335 338 342 341 342 349 347 347 356 5 2 0 3 340 64 293 308